Regional Weather Roundup
Issued by NWS

Home | Current Version | Previous Version | Graphics & Text | Print | Product List | Glossary On
Versions: 1 2 3 4 5 6 7 8 9 10 11 12 13 14 15 16 17 18 19 20 21 22 23 24 25 26 27 28 29 30 31 32 33 34 35 36 37 38 39 40 41 42 43 44 45 46 47 48 49 50
000
ASUS43 KLMK 200202
RWRKY
KENTUCKY REGIONAL WEATHER ROUNDUP
NATIONAL WEATHER SERVICE LOUISVILLE KY
1000 PM EDT THU APR 19 2018

NOTE "FAIR" INDICATES FEW OR NO CLOUDS BELOW 12,000 FEET
WITH NO SIGNIFICANT WEATHER AND/OR OBSTRUCTIONS TO VISIBILITY.

KYZ001>023-026-027-061>063-070>075-200300-
WESTERN AND SOUTH CENTRAL KENTUCKY

CITY           SKY/WX    TMP DP  RH WIND       PRES   REMARKS
PADUCAH        FAIR      47  32  56 NE3       30.38S
HENDERSON      FAIR      44  35  70 CALM      30.38S
OWENSBORO      FAIR      46  33  60 NW3       30.38R
HOPKINSVILLE   FAIR      45  32  61 N5        30.37R
BOWLING GREEN  FAIR      47  33  58 CALM      30.37R
GLASGOW        NOT AVBL
$$

KYZ024-025-028>034-038-045-046-053-200300-
NORTH CENTRAL KENTUCKY

CITY           SKY/WX    TMP DP  RH WIND       PRES   REMARKS
LOUISVILLE/SDF FAIR      48  30  49 SW6       30.35R
LOUISVILLE/LOU FAIR      47  29  49 CALM      30.35R
FORT KNOX      FAIR      42  32  66 CALM      30.35R
$$

KYZ035>037-039>044-047>052-055>060-089>105-200300-
NORTHEAST KENTUCKY

CITY           SKY/WX    TMP DP  RH WIND       PRES   REMARKS
LEXINGTON      FAIR      42  31  64 SW5       30.33R
COVINGTON      FAIR      45  28  51 NW8       30.30R
FRANKFORT      FAIR      41  30  65 W3        30.32R
$$

KYZ054-064>069-076>088-106>120-200300-
SOUTHEAST KENTUCKY

CITY           SKY/WX    TMP DP  RH WIND       PRES   REMARKS
JACKSON        FAIR      43  28  55 W3        30.31R
LONDON         FAIR      39  31  72 CALM      30.33R
SOMERSET       NOT AVBL
MIDDLESBORO    FAIR      39  31  73 CALM      30.33R
MONTICELLO     FAIR      35  32  88 VRB7      30.37R WCI  29
$$





USA.gov is the U.S. government's official web portal to all federal, state and local government web resources and services.